[[{"header":{"parameterUnit":"m.s-1","parameterCategory":1,"la1":30.2991,"la2":30.254,"lo1":-89.0895,"lo2":-89.0444,"dx":0.0017,"dy":0.0017,"nx":28,"ny":28,"refTime":"2022-12-29T09:00:00:Z","depth":0,"parameterNumber":2,"parameterNumberName":"U-component_of_WINDS"},"data":[0,0,0,0,0,0,0,0,0,0,0,0,0,0,0,0,0,0,0,0,0,0,0,0,0,0,0,0,0,0,0,0,0,0,0,0,0,0,0,0,0,0,0,0,0,0,0,0,0,0,0,0,0,0,0,0,0,0,-5.8497,-5.8498,0,-5.8619,-5.8621,-5.8622,-5.8621,-5.862,-5.8618,-5.8617,-5.874,-5.8745,-5.8749,0,0,0,0,0,0,0,0,0,0,0,0,0,-5.826,-5.8265,-5.8497,-5.8498,-5.85,-5.8619,-5.8621,-5.8623,-5.8622,-5.862,-5.8618,-5.8616,-5.8738,-5.8744,-5.875,0,0,0,0,0,0,0,0,0,0,0,0,0,-5.8371,-5.8266,-5.8496,-5.8514,-5.8516,-5.8619,-5.8621,-5.8623,-5.8622,-5.862,-5.8617,-5.8615,-5.8737,-5.8744,-5.8751,-5.8843,0,0,-5.8773,-5.8776,0,0,0,0,0,0,0,0,-5.8365,-5.838,-5.851,-5.8513,-5.8516,-5.8603,-5.8583,-5.8697,-5.8623,-5.8582,-5.8616,-5.8614,-5.8696,-5.8706,-5.8735,-5.8849,-5.8854,-5.8773,-5.8778,-5.8781,-5.8783,0,0,0,0,0,0,0,-5.8357,-5.8374,-5.8545,-5.8511,-5.8515,-5.8515,-5.8528,-5.8604,-5.8651,-5.8585,-5.8585,-5.86,-5.8697,-5.8728,-5.8738,-5.8856,-5.8773,-5.8779,-5.8784,-5.8787,-5.9053,-5.9056,0,0,0,0,0,0,-5.8346,-5.8368,-5.8541,-5.8549,-5.8433,-5.8521,-5.8536,-5.8577,-5.865,-5.8659,-5.8602,-5.86,-5.8717,-5.8729,-5.8742,-5.8855,-5.8781,-5.8787,-5.8791,-5.9051,-5.9054,-5.9057,0,0,0,0,0,0,-5.8341,-5.8362,-5.8536,-5.8459,-5.8481,-5.8528,-5.8574,-5.8581,-5.8611,-5.8663,-5.8671,-5.8625,-5.8715,-5.8732,-5.8818,-5.8859,-5.8791,-5.8797,-5.9047,-5.9052,-5.9055,-5.9081,0,0,0,0,0,0,-5.8334,-5.836,-5.8395,-5.8459,-5.8485,-5.8611,-5.8577,-5.8585,-5.8624,-5.8622,-5.8686,-5.8694,-5.8715,-5.8808,-5.8825,-5.8868,-5.8803,-5.9044,-5.9049,-5.9054,-5.9077,-5.9086,-5.9094,0,0,0,0,0,-5.8326,-5.8397,-5.8397,-5.8418,-5.8531,-5.8613,-5.8628,-5.865,-5.8627,-5.8663,-5.8697,-5.8692,-5.8852,-5.8816,-5.8837,-5.8882,-5.9041,-5.9048,-5.9054,-5.9073,-5.9084,-5.9093,0,0,0,0,0,0,-5.8335,-5.8406,-5.8406,-5.8501,-5.8551,-5.8613,-5.8659,-5.8661,-5.8718,-5.8713,-5.8738,-5.8753,-5.8839,-5.887,-5.8828,-5.8976,-5.8944,-5.8955,-5.8952,-5.8963,-5.8971,-5.8961,-5.8809,0,0,0,0,0,-5.8349,-5.841,-5.8469,-5.8546,-5.8572,-5.8611,-5.8648,-5.8661,-5.8714,-5.8735,-5.8774,-5.8825,-5.8887,-5.8927,-5.8987,-5.9083,-5.9096,-5.9124,-5.9132,-5.9138,-5.9146,-5.9199,-5.9212,-5.9077,-5.9077,-5.9077,0,0,-5.8376,-5.8422,-5.8459,-5.8549,-5.859,-5.8653,-5.8629,-5.8696,-5.8743,-5.8745,-5.8828,-5.886,-5.8919,-5.901,-5.9052,-5.9038,-5.9187,-5.9146,-5.9151,-5.9156,-5.9207,-5.922,-5.9231,-5.9082,-5.9081,-5.908,0,0,-5.8458,-5.85,-5.8569,-5.8611,-5.8673,-5.8699,-5.8716,-5.8778,-5.8799,-5.8884,-5.8887,-5.8944,-5.905,-5.9091,-5.9126,-5.9227,-5.9225,-5.9246,-5.9288,-5.9339,-5.9349,-5.9359,-5.9394,-5.9406,-5.9254,-5.9254,-5.9254,0,-5.8484,-5.8579,-5.8604,-5.8672,-5.8711,-5.8718,-5.8788,-5.8827,-5.8905,-5.8932,-5.8916,-5.9049,-5.9089,-5.9191,-5.9215,-5.9244,-5.9263,-5.9237,-5.9346,-5.9356,-5.9365,-5.9398,-5.9412,-5.9256,-5.9256,-5.9256,-5.9256,0,-5.8607,-5.8674,-5.8722,-5.8799,-5.8844,-5.8912,-5.8948,-5.899,-5.9001,-5.9029,-5.9116,-5.9165,-5.9234,-5.926,-5.927,-5.9363,-5.9352,-5.9341,-5.9309,-5.9379,-5.9411,-5.9424,-5.9259,-5.9258,-5.9258,-5.9257,0,0,-5.8695,-5.8787,-5.8804,-5.8839,-5.891,-5.8961,-5.9031,-5.91,-5.9136,-5.919,-5.9249,-5.934,-5.933,-5.937,-5.9385,-5.9431,-5.9506,-5.9414,-5.9415,-5.9428,-5.9611,-5.9617,-5.9632,-5.9507,-5.9509,-5.9511,-5.9606,0,-5.8783,-5.8907,-5.8933,-5.9039,-5.9101,-5.9109,-5.917,-5.922,-5.9249,-5.9305,-5.9336,-5.94,-5.9383,-5.9407,-5.9453,-5.9487,-5.9543,-5.9481,-5.956,-5.9562,-5.9542,-5.9649,-5.9655,-5.9742,-5.9618,-5.962,-5.9622,0,-5.8901,-5.896,-5.9073,-5.9136,-5.9163,-5.9217,-5.9283,-5.9337,-5.9394,-5.9412,-5.9458,-5.9469,-5.9541,-5.9509,-5.9609,-5.9566,-5.9601,-5.9623,-5.9627,-5.9633,-5.9594,-5.9656,-5.977,-5.9782,-5.9642,-5.964,-5.9639,0,-5.8952,-5.906,-5.9141,-5.9171,-5.9248,-5.9285,-5.9319,-5.9374,-5.9414,-5.9472,-5.9499,-5.9565,-5.96,-5.9651,-5.9679,-5.9653,-5.9777,-5.9746,-5.9793,-5.9792,-5.9816,-5.9813,-5.9935,-5.9842,-5.9842,-5.9841,-5.9841,0,-5.9046,-5.9114,-5.9165,-5.9215,-5.9292,-5.9322,-5.9397,-5.9431,-5.948,-5.9536,-5.9549,-5.9601,-5.9637,-5.9695,-5.9718,-5.9797,-5.9813,-5.9829,-5.9834,-5.9826,-5.9824,-5.9847,-5.9841,-5.9845,-5.9844,-5.9843,-5.9843,0,-5.9114,-5.9151,-5.9241,-5.9307,-5.9325,-5.9379,-5.9435,-5.9484,-5.9514,-5.9585,-5.9604,-5.9651,-5.972,-5.9754,-5.984,-5.9855,-5.9944,-5.9946,-5.9924,-5.9926,-5.9969,-5.9964,-6.0108,-6.0128,-6.0024,-6.0025,-6.0025,0,-5.917,-5.9224,-5.9296,-5.9335,-5.937,-5.9433,-5.9474,-5.9507,-5.955,-5.962,-5.966,-5.973,-5.9787,-5.9896,-5.9938,-6.0004,-6.0006,-6.0053,-6.0016,-6.0007,-6.0005,-6.0,-6.0005,-6.0058,-6.0059,-6.006,-6.006,0,-5.9266,-5.9282,-5.9342,-5.941,-5.9459,-5.9514,-5.9567,-5.9598,-5.9639,-5.9687,-5.9758,-5.9803,-5.9891,-5.996,-6.0029,-6.0063,-6.0068,-6.0072,-6.0086,-6.0077,-6.0062,-6.0069,-5.994,-6.0068,-6.0067,-6.0066,-6.0066,-6.0066,-5.9329,-5.9376,-5.9435,-5.9502,-5.9546,-5.9596,-5.9645,-5.9683,-5.9743,-5.9817,-5.9833,-5.9908,-5.9965,-6.0059,-6.0096,-6.0155,-6.0144,-6.0165,-6.0169,-6.0173,-6.0175,-6.0055,-6.0168,-6.0167,-6.0167,-6.0167,-6.0167,0,-5.9423,-5.9462,-5.9523,-5.9598,-5.9651,-5.9654,-5.9714,-5.9757,-5.9824,-5.9877,-5.9934,-6.0015,-6.0083,-6.0131,-6.02,-6.0238,-6.0242,-6.0254,-6.025,-6.0258,-6.0181,-6.0161,-6.025,-6.025,-6.025,-6.025,-6.025,-6.025,-5.9478,-5.9559,-5.9582,-5.9685,-5.9724,-5.9798,-5.9832,-5.9878,-5.9921,-6.0012,-6.0068,-6.01,-6.0151,-6.0224,-6.0286,-6.0299,-6.0322,-6.0335,-6.0347,-6.0273,-6.0264,-6.0255,-6.0237,-6.034,-6.034,-6.0419,-6.042,-6.0421]},{"header":{"parameterUnit":"m.s-1","parameterCategory":1,"la1":30.2991,"la2":30.254,"lo1":-89.0895,"lo2":-89.0444,"dx":0.0017,"dy":0.0017,"nx":28,"ny":28,"refTime":"2022-12-29T09:00:00:Z","depth":0,"parameterNumber":3,"parameterNumberName":"V-component_of_WINDS"},"data":[0,0,0,0,0,0,0,0,0,0,0,0,0,0,0,0,0,0,0,0,0,0,0,0,0,0,0,0,0,0,0,0,0,0,0,0,0,0,0,0,0,0,0,0,0,0,0,0,0,0,0,0,0,0,0,0,0,0,3.1037,3.1038,0,3.1066,3.1067,3.1067,3.1076,3.1076,3.1076,3.1076,3.1102,3.1102,3.1103,0,0,0,0,0,0,0,0,0,0,0,0,0,3.0988,3.0989,3.1037,3.1038,3.1038,3.1066,3.1067,3.1067,3.1076,3.1076,3.1076,3.1076,3.1101,3.1102,3.1103,0,0,0,0,0,0,0,0,0,0,0,0,0,3.1013,3.0989,3.1037,3.1046,3.1047,3.1066,3.1067,3.1067,3.1076,3.1076,3.1076,3.1075,3.1101,3.1102,3.1103,3.1115,0,0,3.1107,3.1108,0,0,0,0,0,0,0,0,3.1011,3.1014,3.1044,3.1045,3.1047,3.1068,3.1059,3.1083,3.1076,3.1065,3.1076,3.1075,3.109,3.1092,3.1098,3.1116,3.1117,3.1107,3.1108,3.1108,3.1109,0,0,0,0,0,0,0,3.1009,3.1013,3.1049,3.1045,3.1046,3.1048,3.1051,3.1064,3.1078,3.1066,3.1067,3.107,3.1091,3.1097,3.1099,3.1118,3.1107,3.1108,3.1109,3.111,3.115,3.115,0,0,0,0,0,0,3.1007,3.1012,3.1048,3.105,3.1028,3.1049,3.1053,3.1061,3.1078,3.1081,3.107,3.107,3.1095,3.1097,3.11,3.1117,3.1108,3.111,3.111,3.1149,3.115,3.115,0,0,0,0,0,0,3.1006,3.101,3.1047,3.1031,3.1036,3.105,3.1059,3.1062,3.1068,3.1081,3.1084,3.1074,3.1095,3.1098,3.1112,3.1118,3.111,3.1111,3.1149,3.115,3.115,3.1149,0,0,0,0,0,0,3.1004,3.1009,3.1014,3.1031,3.1037,3.1059,3.106,3.1062,3.107,3.1071,3.1086,3.1088,3.1095,3.111,3.1113,3.1119,3.1112,3.1149,3.1149,3.115,3.1149,3.115,3.115,0,0,0,0,0,3.1002,3.1011,3.1014,3.1018,3.1043,3.1059,3.1062,3.1071,3.1071,3.1076,3.1085,3.1087,3.1116,3.1112,3.1115,3.1121,3.1148,3.1149,3.115,3.1148,3.1149,3.115,0,0,0,0,0,0,3.0992,3.1013,3.1017,3.1031,3.1044,3.1061,3.1067,3.1072,3.1083,3.1083,3.1093,3.1096,3.111,3.1117,3.1111,3.1135,3.1132,3.1134,3.113,3.1131,3.1132,3.113,3.1113,0,0,0,0,0,3.0992,3.1004,3.1021,3.1033,3.1039,3.1052,3.1059,3.1066,3.1078,3.1083,3.1093,3.1104,3.1117,3.1124,3.1135,3.115,3.1154,3.1156,3.1157,3.1157,3.1159,3.1169,3.1171,3.1153,3.1153,3.1153,0,0,3.099,3.1004,3.101,3.1031,3.1041,3.1054,3.1056,3.1068,3.1078,3.1084,3.11,3.1108,3.1121,3.1136,3.1143,3.1142,3.1165,3.1158,3.1158,3.116,3.117,3.1172,3.1174,3.1153,3.1153,3.1153,0,0,3.0995,3.1006,3.1018,3.1029,3.1046,3.1055,3.1058,3.1075,3.1081,3.1097,3.1103,3.1114,3.1134,3.1144,3.1152,3.1164,3.1168,3.1167,3.1171,3.1182,3.1183,3.1185,3.1191,3.1193,3.1169,3.1169,3.1169,0,3.0991,3.1012,3.1023,3.1037,3.1046,3.1055,3.1068,3.1077,3.1096,3.1102,3.1101,3.1129,3.1138,3.1157,3.1161,3.1166,3.117,3.1166,3.1182,3.1184,3.1185,3.1192,3.1194,3.1169,3.1169,3.1169,3.1169,0,3.1007,3.1021,3.1029,3.105,3.106,3.1073,3.1087,3.1096,3.1102,3.1111,3.1128,3.114,3.1156,3.116,3.1165,3.1181,3.118,3.1181,3.1179,3.1187,3.1193,3.1196,3.1169,3.1169,3.1169,3.1169,0,0,3.1005,3.1035,3.1037,3.1048,3.1068,3.1079,3.1093,3.1111,3.1119,3.1132,3.1145,3.1163,3.1165,3.1174,3.118,3.1189,3.1201,3.1189,3.1189,3.1192,3.1222,3.1223,3.1225,3.1203,3.1204,3.1204,3.1222,0,3.1014,3.1041,3.1053,3.1074,3.1089,3.1098,3.1111,3.1125,3.1134,3.1148,3.1158,3.1172,3.1172,3.1178,3.1187,3.1198,3.1207,3.1196,3.1216,3.1216,3.1214,3.1228,3.1228,3.1244,3.1224,3.1224,3.1224,0,3.1027,3.1044,3.1067,3.1089,3.1095,3.1107,3.1125,3.1137,3.1154,3.1161,3.1173,3.1179,3.1195,3.1192,3.1214,3.1206,3.1215,3.1222,3.1223,3.1226,3.1222,3.1233,3.1249,3.1252,3.1228,3.1228,3.1227,0,3.1026,3.1053,3.1072,3.108,3.1106,3.1114,3.1125,3.1141,3.1152,3.1168,3.1175,3.1191,3.1201,3.1213,3.1225,3.1221,3.1247,3.1244,3.1253,3.1253,3.1259,3.1259,3.1278,3.1262,3.1262,3.1262,3.1262,0,3.1035,3.1049,3.1072,3.1083,3.1101,3.1115,3.1131,3.1142,3.1158,3.1172,3.118,3.1193,3.1207,3.1221,3.123,3.1249,3.1252,3.1258,3.1261,3.1258,3.1258,3.1265,3.1265,3.1263,3.1262,3.1262,3.1262,0,3.1036,3.1051,3.1073,3.1097,3.1103,3.1115,3.1135,3.1147,3.1158,3.1176,3.1181,3.1198,3.1216,3.1229,3.1251,3.1257,3.1278,3.1279,3.1273,3.1274,3.1284,3.1284,3.131,3.1315,3.1294,3.1294,3.1294,0,3.1041,3.1053,3.1079,3.1091,3.1102,3.1119,3.1131,3.1146,3.1158,3.118,3.1189,3.1209,3.1225,3.1254,3.1268,3.1286,3.1288,3.1296,3.1291,3.129,3.1291,3.1291,3.1293,3.1297,3.1298,3.1298,3.1298,0,3.105,3.1058,3.1076,3.1097,3.1112,3.1129,3.1146,3.1154,3.1172,3.1186,3.1206,3.1219,3.1244,3.1263,3.1283,3.1294,3.1299,3.13,3.1303,3.1302,3.1298,3.1303,3.1277,3.1299,3.1299,3.1299,3.1299,3.1299,3.1054,3.1067,3.1088,3.1109,3.1124,3.1141,3.1154,3.1169,3.1186,3.1209,3.1216,3.1238,3.1256,3.1284,3.1296,3.1312,3.1312,3.1316,3.1318,3.1319,3.132,3.1295,3.1316,3.1316,3.1316,3.1316,3.1316,0,3.1065,3.1081,3.1099,3.1125,3.1141,3.1147,3.1167,3.118,3.12,3.1218,3.1235,3.1259,3.1279,3.1296,3.1317,3.1327,3.133,3.1332,3.1332,3.1335,3.1318,3.1314,3.1329,3.1329,3.1329,3.1329,3.1329,3.1329,3.1073,3.1095,3.1107,3.1137,3.1152,3.1175,3.1186,3.1202,3.1217,3.1245,3.1262,3.1274,3.1292,3.1315,3.1334,3.1338,3.1346,3.1348,3.1353,3.1337,3.1336,3.1334,3.1331,3.1349,3.1349,3.1368,3.1368,3.1369]}]]